Time,TemperatureF,DewpointF,PressureIn,WindDirection,WindDirectionDegrees,WindSpeedMPH,WindSpeedGustMPH,Humidity,HourlyPrecipIn,Conditions,Clouds,dailyrainin,SoftwareType,DateUTC
2013-05-07 00:01:00,57.0,56.4,29.84,NNW,337,6.0,9.0,98,0.07,,,0.00,Weather View 32 v70,2013-05-07 04:01:00,
2013-05-07 00:06:00,56.0,55.2,29.83,NNW,337,0.0,9.0,97,0.07,,,0.00,Weather View 32 v70,2013-05-07 04:06:00,
2013-05-07 00:11:00,56.0,55.2,29.83,NE,45,6.0,9.0,97,0.07,,,0.00,Weather View 32 v70,2013-05-07 04:11:00,
2013-05-07 00:16:00,56.0,55.2,29.83,NE,45,4.0,9.0,97,0.06,,,0.00,Weather View 32 v70,2013-05-07 04:16:00,
2013-05-07 00:21:00,56.0,55.2,29.83,NNE,22,1.0,8.0,97,0.04,,,0.00,Weather View 32 v70,2013-05-07 04:21:00,
2013-05-07 00:26:00,56.0,55.2,29.84,NNE,22,2.0,7.0,97,0.04,,,0.00,Weather View 32 v70,2013-05-07 04:26:00,
2013-05-07 00:31:00,56.0,55.2,29.84,North,360,1.0,7.0,97,0.03,,,0.00,Weather View 32 v70,2013-05-07 04:31:00,
2013-05-07 00:36:00,56.0,55.2,29.84,NE,45,5.0,7.0,97,0.03,,,0.00,Weather View 32 v70,2013-05-07 04:36:00,
2013-05-07 00:41:00,56.0,55.2,29.84,NE,45,1.0,7.0,97,0.02,,,0.00,Weather View 32 v70,2013-05-07 04:41:00,
2013-05-07 00:46:00,56.0,55.2,29.84,NE,45,3.0,7.0,97,0.02,,,0.00,Weather View 32 v70,2013-05-07 04:46:00,
2013-05-07 00:51:00,56.0,55.2,29.84,NE,45,4.0,7.0,97,0.02,,,0.00,Weather View 32 v70,2013-05-07 04:51:00,
2013-05-07 00:56:00,56.0,55.2,29.83,NE,45,1.0,7.0,97,0.01,,,0.00,Weather View 32 v70,2013-05-07 04:56:00,
2013-05-07 01:01:00,55.0,54.2,29.83,NE,45,2.0,7.0,97,0.00,,,0.00,Weather View 32 v70,2013-05-07 05:01:00,
2013-05-07 01:06:00,55.0,54.2,29.83,NE,45,6.0,7.0,97,0.01,,,0.01,Weather View 32 v70,2013-05-07 05:06:00,
2013-05-07 01:11:00,55.0,54.2,29.83,NE,45,6.0,7.0,97,0.01,,,0.01,Weather View 32 v70,2013-05-07 05:11:00,
2013-05-07 01:16:00,55.0,54.2,29.84,ENE,67,1.0,8.0,97,0.01,,,0.01,Weather View 32 v70,2013-05-07 05:16:00,
2013-05-07 01:21:00,55.0,54.2,29.84,NE,45,3.0,8.0,97,0.01,,,0.01,Weather View 32 v70,2013-05-07 05:21:00,
2013-05-07 01:26:00,55.0,54.2,29.84,NE,45,4.0,8.0,97,0.01,,,0.01,Weather View 32 v70,2013-05-07 05:26:00,
2013-05-07 01:31:00,55.0,54.2,29.84,NE,45,1.0,8.0,97,0.01,,,0.01,Weather View 32 v70,2013-05-07 05:31:00,
2013-05-07 01:36:00,55.0,54.2,29.84,NE,45,2.0,8.0,97,0.01,,,0.01,Weather View 32 v70,2013-05-07 05:36:00,
2013-05-07 01:41:00,55.0,54.2,29.84,NE,45,4.0,8.0,97,0.01,,,0.01,Weather View 32 v70,2013-05-07 05:41:00,
2013-05-07 01:46:00,55.0,54.2,29.83,NE,45,1.0,8.0,97,0.01,,,0.01,Weather View 32 v70,2013-05-07 05:46:00,
2013-05-07 01:51:00,55.0,54.2,29.83,NE,45,5.0,8.0,97,0.01,,,0.01,Weather View 32 v70,2013-05-07 05:51:00,
2013-05-07 01:56:00,55.0,54.2,29.83,NE,45,0.0,8.0,97,0.01,,,0.01,Weather View 32 v70,2013-05-07 05:56:00,
2013-05-07 02:01:00,55.0,54.2,29.83,NE,45,0.0,8.0,97,0.01,,,0.01,Weather View 32 v70,2013-05-07 06:01:00,
2013-05-07 02:06:00,55.0,54.2,29.83,NE,45,0.0,8.0,97,0.00,,,0.01,Weather View 32 v70,2013-05-07 06:06:00,
2013-05-07 02:11:00,55.0,54.2,29.83,NE,45,0.0,8.0,97,0.00,,,0.01,Weather View 32 v70,2013-05-07 06:11:00,
2013-05-07 02:16:00,55.0,54.2,29.83,NE,45,0.0,6.0,97,0.00,,,0.01,Weather View 32 v70,2013-05-07 06:16:00,
2013-05-07 02:21:00,55.0,54.2,29.83,NE,45,0.0,6.0,97,0.00,,,0.01,Weather View 32 v70,2013-05-07 06:21:00,
2013-05-07 02:26:00,55.0,54.2,29.83,NE,45,0.0,6.0,97,0.00,,,0.01,Weather View 32 v70,2013-05-07 06:26:00,
2013-05-07 02:31:00,55.0,54.2,29.83,NE,45,0.0,6.0,97,0.00,,,0.01,Weather View 32 v70,2013-05-07 06:31:00,
2013-05-07 02:36:00,56.0,55.2,29.83,NE,45,0.0,6.0,97,0.00,,,0.01,Weather View 32 v70,2013-05-07 06:36:00,
2013-05-07 02:41:00,56.0,55.2,29.83,NE,45,0.0,6.0,97,0.00,,,0.01,Weather View 32 v70,2013-05-07 06:41:00,
2013-05-07 02:46:00,56.0,55.2,29.82,NE,45,0.0,6.0,97,0.00,,,0.01,Weather View 32 v70,2013-05-07 06:46:00,
2013-05-07 02:51:00,56.0,55.2,29.82,NE,45,0.0,6.0,97,0.00,,,0.01,Weather View 32 v70,2013-05-07 06:51:00,
2013-05-07 02:57:00,56.0,55.2,29.82,NE,45,0.0,2.0,97,0.00,,,0.01,Weather View 32 v70,2013-05-07 06:57:00,
2013-05-07 03:02:00,56.0,55.2,29.82,NE,45,0.0,2.0,97,0.00,,,0.01,Weather View 32 v70,2013-05-07 07:02:00,
2013-05-07 03:07:00,56.0,55.2,29.82,NE,45,1.0,2.0,97,0.00,,,0.01,Weather View 32 v70,2013-05-07 07:07:00,
2013-05-07 03:12:00,56.0,55.2,29.82,NE,45,0.0,2.0,97,0.00,,,0.01,Weather View 32 v70,2013-05-07 07:12:00,
2013-05-07 03:17:00,56.0,55.2,29.82,NE,45,0.0,1.0,97,0.00,,,0.01,Weather View 32 v70,2013-05-07 07:17:00,
2013-05-07 03:22:00,56.0,55.2,29.82,NE,45,0.0,1.0,97,0.00,,,0.01,Weather View 32 v70,2013-05-07 07:22:00,
2013-05-07 03:27:00,56.0,55.2,29.82,NE,45,0.0,1.0,97,0.00,,,0.01,Weather View 32 v70,2013-05-07 07:27:00,
2013-05-07 03:32:00,56.0,55.2,29.82,NE,45,0.0,1.0,97,0.00,,,0.01,Weather View 32 v70,2013-05-07 07:32:00,
2013-05-07 03:37:00,56.0,55.2,29.82,North,360,0.0,1.0,97,0.00,,,0.01,Weather View 32 v70,2013-05-07 07:37:00,
2013-05-07 03:42:00,56.0,55.2,29.82,NW,315,3.0,4.0,97,0.00,,,0.01,Weather View 32 v70,2013-05-07 07:42:00,
2013-05-07 03:47:00,56.0,55.2,29.82,NW,315,1.0,4.0,97,0.00,,,0.01,Weather View 32 v70,2013-05-07 07:47:00,
2013-05-07 03:52:00,56.0,55.2,29.82,West,270,3.0,6.0,97,0.00,,,0.01,Weather View 32 v70,2013-05-07 07:52:00,
2013-05-07 03:57:00,56.0,55.2,29.82,WSW,247,7.0,8.0,97,0.00,,,0.01,Weather View 32 v70,2013-05-07 07:57:00,
2013-05-07 04:02:00,55.0,54.2,29.82,West,270,8.0,9.0,97,0.00,,,0.01,Weather View 32 v70,2013-05-07 08:02:00,
2013-05-07 04:07:00,55.0,54.2,29.82,West,270,1.0,9.0,97,0.00,,,0.01,Weather View 32 v70,2013-05-07 08:07:00,
2013-05-07 04:12:00,55.0,54.2,29.82,West,270,3.0,9.0,97,0.00,,,0.01,Weather View 32 v70,2013-05-07 08:12:00,
2013-05-07 04:17:00,55.0,54.2,29.81,West,270,3.0,9.0,97,0.00,,,0.01,Weather View 32 v70,2013-05-07 08:17:00,
2013-05-07 04:22:00,55.0,54.2,29.81,West,270,1.0,9.0,97,0.00,,,0.01,Weather View 32 v70,2013-05-07 08:22:00,
2013-05-07 04:27:00,55.0,54.2,29.82,West,270,3.0,9.0,97,0.00,,,0.01,Weather View 32 v70,2013-05-07 08:27:00,
2013-05-07 04:32:00,55.0,54.2,29.82,West,270,1.0,9.0,97,0.00,,,0.01,Weather View 32 v70,2013-05-07 08:32:00,
2013-05-07 04:37:00,55.0,54.2,29.82,West,270,1.0,9.0,97,0.00,,,0.01,Weather View 32 v70,2013-05-07 08:37:00,
2013-05-07 04:42:00,55.0,54.2,29.82,West,270,1.0,9.0,97,0.00,,,0.01,Weather View 32 v70,2013-05-07 08:42:00,
2013-05-07 04:47:00,55.0,54.2,29.82,West,270,0.0,9.0,97,0.00,,,0.01,Weather View 32 v70,2013-05-07 08:47:00,
2013-05-07 04:52:00,56.0,55.2,29.82,West,270,0.0,9.0,97,0.00,,,0.01,Weather View 32 v70,2013-05-07 08:52:00,
2013-05-07 04:57:00,56.0,55.2,29.82,West,270,0.0,9.0,97,0.00,,,0.01,Weather View 32 v70,2013-05-07 08:57:00,
2013-05-07 05:02:00,56.0,55.2,29.82,West,270,3.0,9.0,97,0.00,,,0.01,Weather View 32 v70,2013-05-07 09:02:00,
2013-05-07 05:07:00,56.0,55.2,29.82,West,270,2.0,6.0,97,0.00,,,0.01,Weather View 32 v70,2013-05-07 09:07:00,
2013-05-07 05:12:00,56.0,55.2,29.82,West,270,1.0,5.0,97,0.00,,,0.01,Weather View 32 v70,2013-05-07 09:12:00,
2013-05-07 05:17:00,56.0,55.2,29.82,West,270,4.0,6.0,97,0.00,,,0.01,Weather View 32 v70,2013-05-07 09:17:00,
2013-05-07 05:22:00,56.0,55.2,29.82,West,270,4.0,6.0,97,0.00,,,0.01,Weather View 32 v70,2013-05-07 09:22:00,
2013-05-07 05:27:00,56.0,55.2,29.82,West,270,2.0,6.0,97,0.00,,,0.01,Weather View 32 v70,2013-05-07 09:27:00,
2013-05-07 05:32:00,56.0,55.2,29.82,West,270,0.0,6.0,97,0.00,,,0.01,Weather View 32 v70,2013-05-07 09:32:00,
2013-05-07 05:37:00,56.0,55.2,29.82,SW,225,0.0,6.0,97,0.00,,,0.01,Weather View 32 v70,2013-05-07 09:37:00,
2013-05-07 05:42:00,55.0,54.2,29.82,SW,225,2.0,6.0,97,0.00,,,0.01,Weather View 32 v70,2013-05-07 09:42:00,
2013-05-07 05:47:00,55.0,54.2,29.82,SW,225,3.0,6.0,97,0.00,,,0.01,Weather View 32 v70,2013-05-07 09:47:00,
2013-05-07 05:52:00,55.0,54.2,29.82,SW,225,1.0,6.0,97,0.00,,,0.01,Weather View 32 v70,2013-05-07 09:52:00,
2013-05-07 05:57:00,56.0,55.2,29.82,SW,225,4.0,6.0,97,0.00,,,0.01,Weather View 32 v70,2013-05-07 09:57:00,
2013-05-07 06:02:00,56.0,55.2,29.82,SW,225,4.0,6.0,97,0.00,,,0.01,Weather View 32 v70,2013-05-07 10:02:00,
2013-05-07 06:07:00,56.0,55.2,29.82,WSW,247,5.0,6.0,97,0.00,,,0.01,Weather View 32 v70,2013-05-07 10:07:00,
2013-05-07 06:12:00,55.0,54.2,29.82,SW,225,2.0,6.0,97,0.00,,,0.01,Weather View 32 v70,2013-05-07 10:12:00,
2013-05-07 06:17:00,55.0,54.2,29.82,SW,225,2.0,6.0,97,0.00,,,0.01,Weather View 32 v70,2013-05-07 10:17:00,
2013-05-07 06:22:00,55.0,54.2,29.82,SW,225,0.0,6.0,97,0.00,,,0.01,Weather View 32 v70,2013-05-07 10:22:00,
2013-05-07 06:27:00,55.0,54.2,29.82,NNW,337,0.0,6.0,97,0.00,,,0.01,Weather View 32 v70,2013-05-07 10:27:00,
2013-05-07 06:32:00,55.0,54.2,29.82,NNW,337,0.0,6.0,97,0.00,,,0.01,Weather View 32 v70,2013-05-07 10:32:00,
2013-05-07 06:37:00,55.0,54.2,29.82,NNW,337,0.0,6.0,97,0.00,,,0.01,Weather View 32 v70,2013-05-07 10:37:00,
2013-05-07 06:42:00,55.0,54.2,29.82,NNW,337,0.0,6.0,97,0.00,,,0.01,Weather View 32 v70,2013-05-07 10:42:00,
2013-05-07 06:47:00,55.0,54.2,29.82,NNW,337,0.0,6.0,97,0.00,,,0.01,Weather View 32 v70,2013-05-07 10:47:00,
2013-05-07 06:52:00,56.0,55.2,29.82,NNW,337,0.0,6.0,97,0.00,,,0.01,Weather View 32 v70,2013-05-07 10:52:00,
2013-05-07 06:57:00,56.0,55.2,29.83,NNW,337,0.0,6.0,97,0.00,,,0.01,Weather View 32 v70,2013-05-07 10:57:00,
2013-05-07 07:02:00,56.0,55.2,29.83,NNW,337,0.0,6.0,97,0.00,,,0.01,Weather View 32 v70,2013-05-07 11:02:00,
2013-05-07 07:07:00,56.0,55.2,29.83,NNW,337,0.0,6.0,97,0.00,,,0.01,Weather View 32 v70,2013-05-07 11:07:00,
2013-05-07 07:12:00,56.0,55.2,29.83,NNW,337,0.0,5.0,97,0.00,,,0.01,Weather View 32 v70,2013-05-07 11:12:00,
2013-05-07 07:17:00,56.0,55.2,29.83,NNW,337,0.0,5.0,97,0.00,,,0.01,Weather View 32 v70,2013-05-07 11:17:00,
2013-05-07 07:22:00,56.0,55.2,29.83,NNW,337,0.0,4.0,97,0.00,,,0.01,Weather View 32 v70,2013-05-07 11:22:00,
2013-05-07 07:27:00,56.0,55.2,29.83,NNW,337,0.0,3.0,97,0.00,,,0.01,Weather View 32 v70,2013-05-07 11:27:00,
2013-05-07 07:32:00,56.0,55.2,29.83,NNW,337,0.0,3.0,97,0.00,,,0.01,Weather View 32 v70,2013-05-07 11:32:00,
2013-05-07 07:37:00,56.0,55.2,29.84,NNW,337,0.0,3.0,97,0.00,,,0.01,Weather View 32 v70,2013-05-07 11:37:00,
2013-05-07 07:42:00,56.0,55.2,29.84,NNW,337,1.0,3.0,97,0.00,,,0.01,Weather View 32 v70,2013-05-07 11:42:00,
2013-05-07 07:47:00,56.0,55.2,29.84,NNW,337,0.0,3.0,97,0.00,,,0.01,Weather View 32 v70,2013-05-07 11:47:00,
2013-05-07 07:52:00,56.0,55.2,29.84,NNW,337,0.0,3.0,97,0.00,,,0.01,Weather View 32 v70,2013-05-07 11:52:00,
2013-05-07 07:57:00,56.0,55.2,29.83,NNW,337,0.0,3.0,97,0.00,,,0.01,Weather View 32 v70,2013-05-07 11:57:00,
2013-05-07 08:02:00,57.0,56.4,29.83,NNW,337,0.0,3.0,98,0.00,,,0.01,Weather View 32 v70,2013-05-07 12:02:00,
2013-05-07 08:07:00,57.0,56.4,29.83,NNW,337,0.0,3.0,98,0.00,,,0.01,Weather View 32 v70,2013-05-07 12:07:00,
2013-05-07 08:12:00,57.0,56.4,29.83,NNW,337,0.0,3.0,98,0.00,,,0.01,Weather View 32 v70,2013-05-07 12:12:00,
2013-05-07 08:17:00,57.0,56.4,29.83,NNW,337,0.0,2.0,98,0.00,,,0.01,Weather View 32 v70,2013-05-07 12:17:00,
2013-05-07 08:22:00,56.0,55.2,29.83,NNW,337,0.0,2.0,97,0.00,,,0.01,Weather View 32 v70,2013-05-07 12:22:00,
2013-05-07 08:27:00,56.0,55.2,29.83,NNW,337,0.0,2.0,97,0.00,,,0.01,Weather View 32 v70,2013-05-07 12:27:00,
2013-05-07 08:32:00,57.0,56.4,29.83,NNW,337,0.0,2.0,98,0.00,,,0.01,Weather View 32 v70,2013-05-07 12:32:00,
2013-05-07 08:37:00,57.0,56.4,29.84,NNW,337,0.0,2.0,98,0.00,,,0.01,Weather View 32 v70,2013-05-07 12:37:00,
2013-05-07 08:42:00,57.0,56.4,29.84,NNW,337,0.0,2.0,98,0.00,,,0.01,Weather View 32 v70,2013-05-07 12:42:00,
2013-05-07 08:47:00,58.0,57.4,29.84,NNW,337,0.0,2.0,98,0.00,,,0.01,Weather View 32 v70,2013-05-07 12:47:00,
2013-05-07 08:52:00,57.0,56.4,29.84,NNW,337,0.0,4.0,98,0.00,,,0.01,Weather View 32 v70,2013-05-07 12:52:00,
2013-05-07 08:57:00,57.0,56.4,29.84,NNW,337,0.0,4.0,98,0.00,,,0.01,Weather View 32 v70,2013-05-07 12:57:00,
2013-05-07 09:02:00,57.0,56.4,29.84,NNW,337,0.0,4.0,98,0.00,,,0.01,Weather View 32 v70,2013-05-07 13:02:00,
2013-05-07 09:07:00,57.0,56.4,29.85,NNW,337,0.0,4.0,98,0.00,,,0.01,Weather View 32 v70,2013-05-07 13:07:00,
2013-05-07 09:12:00,58.0,57.4,29.85,NNW,337,0.0,4.0,98,0.00,,,0.01,Weather View 32 v70,2013-05-07 13:12:00,
2013-05-07 09:17:00,58.0,57.4,29.85,NNW,337,0.0,4.0,98,0.00,,,0.01,Weather View 32 v70,2013-05-07 13:17:00,
2013-05-07 09:22:00,58.0,57.4,29.85,NNW,337,0.0,4.0,98,0.00,,,0.01,Weather View 32 v70,2013-05-07 13:22:00,
2013-05-07 09:27:00,58.0,57.4,29.85,West,270,4.0,4.0,98,0.00,,,0.01,Weather View 32 v70,2013-05-07 13:27:00,
2013-05-07 09:32:00,59.0,58.4,29.85,West,270,1.0,6.0,98,0.00,,,0.01,Weather View 32 v70,2013-05-07 13:32:00,
2013-05-07 09:37:00,60.0,59.4,29.85,West,270,1.0,6.0,98,0.00,,,0.01,Weather View 32 v70,2013-05-07 13:37:00,
2013-05-07 09:42:00,62.0,61.4,29.85,West,270,0.0,6.0,98,0.00,,,0.01,Weather View 32 v70,2013-05-07 13:42:00,
2013-05-07 09:47:00,62.0,61.4,29.84,West,270,1.0,6.0,98,0.24,,,0.01,Weather View 32 v70,2013-05-07 13:47:00,
2013-05-07 09:52:00,62.0,61.4,29.84,West,270,0.0,6.0,98,0.00,,,0.01,Weather View 32 v70,2013-05-07 13:52:00,
2013-05-07 09:57:00,62.0,61.4,29.85,West,270,0.0,6.0,98,0.00,,,0.01,Weather View 32 v70,2013-05-07 13:57:00,
2013-05-07 10:02:00,61.0,60.4,29.85,West,270,2.0,6.0,98,0.00,,,0.01,Weather View 32 v70,2013-05-07 14:02:00,
2013-05-07 10:07:00,61.0,60.4,29.86,West,270,2.0,6.0,98,0.00,,,0.01,Weather View 32 v70,2013-05-07 14:07:00,
2013-05-07 10:12:00,61.0,60.4,29.86,West,270,1.0,6.0,98,0.00,,,0.01,Weather View 32 v70,2013-05-07 14:12:00,
2013-05-07 10:17:00,62.0,61.4,29.85,West,270,4.0,6.0,98,0.00,,,0.01,Weather View 32 v70,2013-05-07 14:17:00,
2013-05-07 10:22:00,62.0,61.4,29.85,WSW,247,2.0,6.0,98,0.00,,,0.01,Weather View 32 v70,2013-05-07 14:22:00,
2013-05-07 10:28:00,63.0,62.4,29.85,WSW,247,1.0,6.0,98,0.00,,,0.01,Weather View 32 v70,2013-05-07 14:28:00,
2013-05-07 10:33:00,64.0,63.4,29.85,SW,225,3.0,6.0,98,0.00,,,0.01,Weather View 32 v70,2013-05-07 14:33:00,
2013-05-07 10:38:00,64.0,63.4,29.84,SW,225,4.0,6.0,98,0.00,,,0.01,Weather View 32 v70,2013-05-07 14:38:00,
2013-05-07 10:43:00,65.0,64.7,29.84,SW,225,0.0,7.0,99,0.00,,,0.01,Weather View 32 v70,2013-05-07 14:43:00,
2013-05-07 10:48:00,66.0,65.7,29.84,SW,225,3.0,7.0,99,0.00,,,0.01,Weather View 32 v70,2013-05-07 14:48:00,
2013-05-07 10:53:00,66.0,65.1,29.84,West,270,1.0,8.0,97,0.00,,,0.01,Weather View 32 v70,2013-05-07 14:53:00,
2013-05-07 10:58:00,65.0,64.7,29.84,West,270,0.0,8.0,99,0.00,,,0.01,Weather View 32 v70,2013-05-07 14:58:00,
2013-05-07 11:03:00,64.0,63.4,29.84,West,270,4.0,8.0,98,0.00,,,0.01,Weather View 32 v70,2013-05-07 15:03:00,
2013-05-07 11:08:00,64.0,63.4,29.85,West,270,3.0,8.0,98,0.00,,,0.01,Weather View 32 v70,2013-05-07 15:08:00,
2013-05-07 11:13:00,64.0,63.4,29.85,SW,225,2.0,8.0,98,0.00,,,0.01,Weather View 32 v70,2013-05-07 15:13:00,
2013-05-07 11:18:00,66.0,65.7,29.84,WSW,247,0.0,8.0,99,0.00,,,0.01,Weather View 32 v70,2013-05-07 15:18:00,
2013-05-07 11:23:00,66.0,65.1,29.84,WSW,247,5.0,9.0,97,0.00,,,0.01,Weather View 32 v70,2013-05-07 15:23:00,
2013-05-07 11:28:00,65.0,64.7,29.84,WSW,247,3.0,9.0,99,0.00,,,0.01,Weather View 32 v70,2013-05-07 15:28:00,
2013-05-07 11:33:00,64.0,63.4,29.84,SW,225,5.0,9.0,98,0.00,,,0.01,Weather View 32 v70,2013-05-07 15:33:00,
2013-05-07 11:38:00,64.0,63.4,29.84,SW,225,4.0,10.0,98,0.00,,,0.01,Weather View 32 v70,2013-05-07 15:38:00,
2013-05-07 11:43:00,64.0,62.8,29.84,SW,225,5.0,10.0,96,0.00,,,0.01,Weather View 32 v70,2013-05-07 15:43:00,
2013-05-07 11:48:00,65.0,64.7,29.84,SW,225,3.0,10.0,99,0.00,,,0.01,Weather View 32 v70,2013-05-07 15:48:00,
2013-05-07 11:53:00,65.0,63.2,29.84,SW,225,4.0,10.0,94,0.00,,,0.01,Weather View 32 v70,2013-05-07 15:53:00,
2013-05-07 11:58:00,65.0,61.7,29.83,West,270,6.0,10.0,89,0.00,,,0.01,Weather View 32 v70,2013-05-07 15:58:00,
2013-05-07 12:03:00,66.0,62.3,29.83,SW,225,5.0,10.0,88,0.00,,,0.01,Weather View 32 v70,2013-05-07 16:03:00,
2013-05-07 12:08:00,66.0,60.3,29.83,SW,225,3.0,10.0,82,0.00,,,0.01,Weather View 32 v70,2013-05-07 16:08:00,
2013-05-07 12:13:00,66.0,58.2,29.83,SW,225,5.0,10.0,76,0.00,,,0.01,Weather View 32 v70,2013-05-07 16:13:00,
2013-05-07 12:18:00,65.0,56.1,29.83,SW,225,2.0,11.0,73,0.00,,,0.01,Weather View 32 v70,2013-05-07 16:18:00,
2013-05-07 12:23:00,66.0,58.6,29.83,WSW,247,9.0,11.0,77,0.00,,,0.01,Weather View 32 v70,2013-05-07 16:23:00,
2013-05-07 12:28:00,66.0,59.3,29.82,WSW,247,5.0,11.0,79,0.00,,,0.01,Weather View 32 v70,2013-05-07 16:28:00,
2013-05-07 12:33:00,66.0,56.7,29.82,SW,225,6.0,11.0,72,0.00,,,0.01,Weather View 32 v70,2013-05-07 16:33:00,
2013-05-07 12:38:00,67.0,61.0,29.81,SSW,202,6.0,11.0,81,0.00,,,0.01,Weather View 32 v70,2013-05-07 16:38:00,
2013-05-07 12:43:00,66.0,57.8,29.81,SW,225,5.0,11.0,75,0.00,,,0.01,Weather View 32 v70,2013-05-07 16:43:00,
2013-05-07 12:48:00,66.0,57.8,29.82,SW,225,1.0,11.0,75,0.00,,,0.01,Weather View 32 v70,2013-05-07 16:48:00,
2013-05-07 12:53:00,67.0,59.9,29.82,WSW,247,0.0,11.0,78,0.00,,,0.01,Weather View 32 v70,2013-05-07 16:53:00,
2013-05-07 12:58:00,68.0,58.6,29.80,SSW,202,1.0,11.0,72,0.00,,,0.01,Weather View 32 v70,2013-05-07 16:58:00,
2013-05-07 13:03:00,68.0,58.2,29.80,West,270,6.0,11.0,71,0.00,,,0.01,Weather View 32 v70,2013-05-07 17:03:00,
2013-05-07 13:08:00,68.0,58.2,29.80,WSW,247,1.0,11.0,71,0.00,,,0.01,Weather View 32 v70,2013-05-07 17:08:00,
2013-05-07 13:13:00,67.0,56.9,29.80,WSW,247,7.0,11.0,70,0.00,,,0.01,Weather View 32 v70,2013-05-07 17:13:00,
2013-05-07 13:18:00,67.0,56.1,29.81,SSW,202,5.0,10.0,68,0.00,,,0.01,Weather View 32 v70,2013-05-07 17:18:00,
2013-05-07 13:23:00,66.0,54.7,29.81,SW,225,7.0,10.0,67,0.00,,,0.01,Weather View 32 v70,2013-05-07 17:23:00,
2013-05-07 13:28:00,66.0,54.7,29.81,SW,225,5.0,10.0,67,0.00,,,0.01,Weather View 32 v70,2013-05-07 17:28:00,
2013-05-07 13:33:00,66.0,55.9,29.81,SSW,202,0.0,10.0,70,0.00,,,0.01,Weather View 32 v70,2013-05-07 17:33:00,
2013-05-07 13:38:00,66.0,57.8,29.80,SSW,202,0.0,10.0,75,0.00,,,0.01,Weather View 32 v70,2013-05-07 17:38:00,
2013-05-07 13:43:00,66.0,57.4,29.80,SSW,202,0.0,10.0,74,0.00,,,0.01,Weather View 32 v70,2013-05-07 17:43:00,
2013-05-07 13:48:00,66.0,54.7,29.81,SW,225,0.0,10.0,67,0.00,,,0.01,Weather View 32 v70,2013-05-07 17:48:00,
2013-05-07 13:53:00,66.0,56.3,29.81,SW,225,0.0,10.0,71,0.00,,,0.01,Weather View 32 v70,2013-05-07 17:53:00,
2013-05-07 13:58:00,66.0,56.3,29.81,SW,225,0.0,10.0,71,0.00,,,0.01,Weather View 32 v70,2013-05-07 17:58:00,
2013-05-07 14:03:00,66.0,58.6,29.81,East,90,0.0,10.0,77,0.00,,,0.01,Weather View 32 v70,2013-05-07 18:03:00,
2013-05-07 14:08:00,65.0,58.7,29.81,NW,315,0.0,10.0,80,0.00,,,0.01,Weather View 32 v70,2013-05-07 18:08:00,
2013-05-07 14:13:00,65.0,59.4,29.81,NE,45,0.0,10.0,82,0.00,,,0.01,Weather View 32 v70,2013-05-07 18:13:00,
2013-05-07 14:18:00,65.0,60.0,29.81,South,180,0.0,10.0,84,0.00,,,0.01,Weather View 32 v70,2013-05-07 18:18:00,
2013-05-07 14:23:00,65.0,60.0,29.81,South,180,0.0,9.0,84,0.00,,,0.01,Weather View 32 v70,2013-05-07 18:23:00,
2013-05-07 14:28:00,65.0,60.0,29.81,SSW,202,0.0,7.0,84,0.00,,,0.01,Weather View 32 v70,2013-05-07 18:28:00,
2013-05-07 14:33:00,65.0,59.7,29.81,SSW,202,0.0,7.0,83,0.00,,,0.01,Weather View 32 v70,2013-05-07 18:33:00,
2013-05-07 14:38:00,65.0,59.0,29.80,WSW,247,5.0,7.0,81,0.00,,,0.01,Weather View 32 v70,2013-05-07 18:38:00,
2013-05-07 14:43:00,64.0,60.0,29.80,West,270,0.0,7.0,87,0.00,,,0.01,Weather View 32 v70,2013-05-07 18:43:00,
2013-05-07 14:48:00,64.0,59.4,29.81,West,270,0.0,7.0,85,0.00,,,0.01,Weather View 32 v70,2013-05-07 18:48:00,
2013-05-07 14:53:00,64.0,59.4,29.81,West,270,0.0,7.0,85,0.00,,,0.01,Weather View 32 v70,2013-05-07 18:53:00,
2013-05-07 14:58:00,65.0,59.7,29.80,West,270,0.0,7.0,83,0.00,,,0.01,Weather View 32 v70,2013-05-07 18:58:00,
2013-05-07 15:03:00,65.0,60.0,29.80,West,270,1.0,7.0,84,0.00,,,0.01,Weather View 32 v70,2013-05-07 19:03:00,
2013-05-07 15:08:00,64.0,61.3,29.80,West,270,3.0,7.0,91,0.00,,,0.01,Weather View 32 v70,2013-05-07 19:08:00,
2013-05-07 15:13:00,63.0,62.1,29.80,WSW,247,3.0,7.0,97,0.00,,,0.01,Weather View 32 v70,2013-05-07 19:13:00,
2013-05-07 15:18:00,62.0,61.4,29.81,WSW,247,2.0,7.0,98,0.00,,,0.01,Weather View 32 v70,2013-05-07 19:18:00,
2013-05-07 15:23:00,62.0,61.4,29.81,WSW,247,0.0,7.0,98,0.00,,,0.01,Weather View 32 v70,2013-05-07 19:23:00,
2013-05-07 15:28:00,62.0,61.4,29.80,WSW,247,1.0,7.0,98,0.00,,,0.01,Weather View 32 v70,2013-05-07 19:28:00,
2013-05-07 15:33:00,62.0,61.4,29.80,SW,225,0.0,7.0,98,0.00,,,0.01,Weather View 32 v70,2013-05-07 19:33:00,
2013-05-07 15:38:00,62.0,61.4,29.80,SW,225,2.0,7.0,98,0.00,,,0.01,Weather View 32 v70,2013-05-07 19:38:00,
2013-05-07 15:43:00,62.0,61.4,29.80,SW,225,0.0,7.0,98,0.00,,,0.01,Weather View 32 v70,2013-05-07 19:43:00,
2013-05-07 15:48:00,62.0,61.4,29.79,SW,225,0.0,7.0,98,0.00,,,0.01,Weather View 32 v70,2013-05-07 19:48:00,
2013-05-07 15:53:00,62.0,61.4,29.79,SW,225,0.0,7.0,98,0.00,,,0.01,Weather View 32 v70,2013-05-07 19:53:00,
2013-05-07 15:58:00,62.0,61.4,29.79,SW,225,0.0,7.0,98,0.00,,,0.01,Weather View 32 v70,2013-05-07 19:58:00,
2013-05-07 16:03:00,63.0,62.4,29.79,West,270,0.0,7.0,98,0.00,,,0.01,Weather View 32 v70,2013-05-07 20:03:00,
2013-05-07 16:08:00,63.0,61.8,29.79,NNW,337,0.0,7.0,96,0.00,,,0.01,Weather View 32 v70,2013-05-07 20:08:00,
2013-05-07 16:13:00,63.0,60.9,29.79,NNW,337,3.0,7.0,93,0.00,,,0.01,Weather View 32 v70,2013-05-07 20:13:00,
2013-05-07 16:18:00,63.0,61.5,29.79,NNW,337,1.0,7.0,95,0.00,,,0.01,Weather View 32 v70,2013-05-07 20:18:00,
2013-05-07 16:23:00,64.0,61.6,29.79,NNW,337,0.0,7.0,92,0.00,,,0.01,Weather View 32 v70,2013-05-07 20:23:00,
2013-05-07 16:28:00,64.0,62.2,29.79,NNW,337,0.0,7.0,94,0.00,,,0.01,Weather View 32 v70,2013-05-07 20:28:00,
2013-05-07 16:33:00,64.0,61.9,29.79,NNW,337,0.0,7.0,93,0.00,,,0.01,Weather View 32 v70,2013-05-07 20:33:00,
2013-05-07 16:38:00,64.0,62.2,29.79,NNW,337,0.0,7.0,94,0.00,,,0.01,Weather View 32 v70,2013-05-07 20:38:00,
2013-05-07 16:43:00,64.0,62.2,29.79,NNW,337,0.0,7.0,94,0.00,,,0.01,Weather View 32 v70,2013-05-07 20:43:00,
2013-05-07 16:48:00,64.0,59.1,29.79,ESE,112,0.0,7.0,84,0.00,,,0.01,Weather View 32 v70,2013-05-07 20:48:00,
2013-05-07 16:53:00,65.0,58.0,29.79,ESE,112,0.0,7.0,78,0.00,,,0.01,Weather View 32 v70,2013-05-07 20:53:00,
2013-05-07 16:58:00,65.0,57.2,29.79,SW,225,0.0,7.0,76,0.00,,,0.01,Weather View 32 v70,2013-05-07 20:58:00,
2013-05-07 17:03:00,66.0,57.4,29.79,SW,225,0.0,7.0,74,0.00,,,0.01,Weather View 32 v70,2013-05-07 21:03:00,
2013-05-07 17:08:00,66.0,58.6,29.79,SW,225,0.0,5.0,77,0.00,,,0.01,Weather View 32 v70,2013-05-07 21:08:00,
2013-05-07 17:13:00,66.0,56.3,29.79,SW,225,0.0,5.0,71,0.00,,,0.01,Weather View 32 v70,2013-05-07 21:13:00,
2013-05-07 17:18:00,66.0,56.3,29.79,SW,225,0.0,5.0,71,0.00,,,0.01,Weather View 32 v70,2013-05-07 21:18:00,
2013-05-07 17:23:00,66.0,55.9,29.79,SW,225,0.0,5.0,70,0.00,,,0.01,Weather View 32 v70,2013-05-07 21:23:00,
2013-05-07 17:28:00,66.0,53.9,29.79,WSW,247,7.0,7.0,65,0.00,,,0.01,Weather View 32 v70,2013-05-07 21:28:00,
2013-05-07 17:33:00,64.0,52.0,29.79,SW,225,5.0,15.0,65,0.00,,,0.01,Weather View 32 v70,2013-05-07 21:33:00,
2013-05-07 17:38:00,63.0,50.6,29.80,SW,225,11.0,15.0,64,0.00,,,0.01,Weather View 32 v70,2013-05-07 21:38:00,
2013-05-07 17:43:00,63.0,50.2,29.80,WSW,247,11.0,15.0,63,0.00,,,0.01,Weather View 32 v70,2013-05-07 21:43:00,
2013-05-07 17:48:00,62.0,49.2,29.81,WSW,247,9.0,15.0,63,0.00,,,0.01,Weather View 32 v70,2013-05-07 21:48:00,
2013-05-07 17:53:00,61.0,54.8,29.81,WSW,247,8.0,17.0,80,0.00,,,0.01,Weather View 32 v70,2013-05-07 21:53:00,
2013-05-07 17:58:00,59.0,57.6,29.84,West,270,6.0,23.0,95,0.00,,,0.01,Weather View 32 v70,2013-05-07 21:58:00,
2013-05-07 18:03:00,58.0,57.4,29.84,WSW,247,7.0,23.0,98,0.00,,,0.01,Weather View 32 v70,2013-05-07 22:03:00,
2013-05-07 18:08:00,58.0,57.4,29.85,WSW,247,5.0,23.0,98,0.00,,,0.01,Weather View 32 v70,2013-05-07 22:08:00,
2013-05-07 18:13:00,58.0,57.4,29.85,West,270,6.0,23.0,98,0.00,,,0.01,Weather View 32 v70,2013-05-07 22:13:00,
2013-05-07 18:18:00,57.0,56.4,29.85,NW,315,6.0,23.0,98,0.00,,,0.01,Weather View 32 v70,2013-05-07 22:18:00,
2013-05-07 18:23:00,57.0,56.4,29.85,SW,225,9.0,23.0,98,0.00,,,0.01,Weather View 32 v70,2013-05-07 22:23:00,
2013-05-07 18:28:00,57.0,56.4,29.85,West,270,4.0,23.0,98,0.00,,,0.01,Weather View 32 v70,2013-05-07 22:28:00,
2013-05-07 18:33:00,57.0,56.4,29.85,West,270,9.0,23.0,98,0.00,,,0.01,Weather View 32 v70,2013-05-07 22:33:00,
2013-05-07 18:38:00,57.0,56.4,29.85,West,270,9.0,23.0,98,0.00,,,0.01,Weather View 32 v70,2013-05-07 22:38:00,
2013-05-07 18:43:00,57.0,56.4,29.85,West,270,8.0,23.0,98,0.00,,,0.01,Weather View 32 v70,2013-05-07 22:43:00,
2013-05-07 18:48:00,57.0,56.4,29.85,NNW,337,4.0,23.0,98,0.00,,,0.01,Weather View 32 v70,2013-05-07 22:48:00,
2013-05-07 18:53:00,57.0,56.4,29.85,NW,315,6.0,23.0,98,0.00,,,0.01,Weather View 32 v70,2013-05-07 22:53:00,
2013-05-07 18:58:00,57.0,56.4,29.85,NW,315,0.0,17.0,98,0.00,,,0.01,Weather View 32 v70,2013-05-07 22:58:00,
2013-05-07 19:03:00,57.0,56.4,29.85,NW,315,1.0,17.0,98,0.00,,,0.01,Weather View 32 v70,2013-05-07 23:03:00,
2013-05-07 19:08:00,57.0,56.4,29.85,NNE,22,0.0,17.0,98,0.00,,,0.01,Weather View 32 v70,2013-05-07 23:08:00,
2013-05-07 19:13:00,57.0,56.4,29.85,North,360,3.0,15.0,98,0.00,,,0.01,Weather View 32 v70,2013-05-07 23:13:00,
2013-05-07 19:18:00,57.0,56.4,29.85,North,360,3.0,15.0,98,0.00,,,0.01,Weather View 32 v70,2013-05-07 23:18:00,
2013-05-07 19:23:00,57.0,56.4,29.85,North,360,2.0,15.0,98,0.00,,,0.01,Weather View 32 v70,2013-05-07 23:23:00,
2013-05-07 19:28:00,56.0,55.2,29.85,North,360,0.0,15.0,97,0.00,,,0.01,Weather View 32 v70,2013-05-07 23:28:00,
2013-05-07 19:33:00,56.0,55.2,29.85,North,360,0.0,13.0,97,0.00,,,0.01,Weather View 32 v70,2013-05-07 23:33:00,
2013-05-07 19:38:00,56.0,55.2,29.87,North,360,0.0,13.0,97,0.00,,,0.01,Weather View 32 v70,2013-05-07 23:38:00,
2013-05-07 19:43:00,56.0,55.2,29.87,North,360,0.0,10.0,97,0.00,,,0.01,Weather View 32 v70,2013-05-07 23:43:00,
2013-05-07 19:48:00,56.0,55.2,29.87,North,360,0.0,9.0,97,0.00,,,0.01,Weather View 32 v70,2013-05-07 23:48:00,
2013-05-07 19:53:00,56.0,55.2,29.87,North,360,0.0,9.0,97,0.00,,,0.01,Weather View 32 v70,2013-05-07 23:53:00,
2013-05-07 19:58:00,56.0,55.2,29.87,North,360,0.0,7.0,97,0.00,,,0.01,Weather View 32 v70,2013-05-07 23:58:00,
2013-05-07 20:03:00,56.0,55.2,29.87,North,360,0.0,7.0,97,0.00,,,0.01,Weather View 32 v70,2013-05-08 00:03:00,
2013-05-07 20:08:00,55.0,54.2,29.87,North,360,0.0,7.0,97,1.11,,,0.01,Weather View 32 v70,2013-05-08 00:08:00,
2013-05-07 20:13:00,55.0,54.2,29.87,North,360,0.0,7.0,97,0.00,,,0.01,Weather View 32 v70,2013-05-08 00:13:00,
2013-05-07 20:18:00,55.0,54.2,29.88,North,360,0.0,7.0,97,0.00,,,0.01,Weather View 32 v70,2013-05-08 00:18:00,
2013-05-07 20:24:00,54.0,53.2,29.88,North,360,0.0,5.0,97,0.00,,,0.01,Weather View 32 v70,2013-05-08 00:24:00,
2013-05-07 20:29:00,54.0,53.2,29.87,North,360,0.0,5.0,97,0.00,,,0.01,Weather View 32 v70,2013-05-08 00:29:00,
2013-05-07 20:34:00,54.0,53.2,29.87,North,360,0.0,5.0,97,0.00,,,0.01,Weather View 32 v70,2013-05-08 00:34:00,
2013-05-07 20:39:00,54.0,53.2,29.88,North,360,0.0,5.0,97,0.00,,,0.01,Weather View 32 v70,2013-05-08 00:39:00,
2013-05-07 20:44:00,54.0,53.2,29.88,North,360,0.0,3.0,97,0.00,,,0.01,Weather View 32 v70,2013-05-08 00:44:00,
2013-05-07 20:49:00,54.0,53.2,29.88,North,360,0.0,0.0,97,0.00,,,0.01,Weather View 32 v70,2013-05-08 00:49:00,
2013-05-07 20:54:00,53.0,52.2,29.88,North,360,0.0,0.0,97,0.00,,,0.01,Weather View 32 v70,2013-05-08 00:54:00,
2013-05-07 20:59:00,53.0,52.2,29.89,North,360,0.0,0.0,97,0.00,,,0.01,Weather View 32 v70,2013-05-08 00:59:00,
2013-05-07 21:04:00,53.0,52.2,29.89,North,360,0.0,0.0,97,0.00,,,0.01,Weather View 32 v70,2013-05-08 01:04:00,
2013-05-07 21:09:00,53.0,52.2,29.89,North,360,0.0,0.0,97,0.00,,,0.01,Weather View 32 v70,2013-05-08 01:09:00,
2013-05-07 21:14:00,53.0,52.2,29.89,North,360,0.0,0.0,97,0.00,,,0.01,Weather View 32 v70,2013-05-08 01:14:00,
2013-05-07 21:19:00,54.0,53.2,29.89,North,360,0.0,0.0,97,0.00,,,0.01,Weather View 32 v70,2013-05-08 01:19:00,
2013-05-07 21:24:00,54.0,53.2,29.89,North,360,0.0,0.0,97,0.00,,,0.01,Weather View 32 v70,2013-05-08 01:24:00,
2013-05-07 21:29:00,54.0,53.2,29.90,North,360,0.0,0.0,97,0.00,,,0.01,Weather View 32 v70,2013-05-08 01:29:00,
2013-05-07 21:34:00,54.0,53.2,29.90,North,360,0.0,0.0,97,0.00,,,0.01,Weather View 32 v70,2013-05-08 01:34:00,
2013-05-07 21:39:00,54.0,53.2,29.90,SW,225,0.0,3.0,97,0.00,,,0.01,Weather View 32 v70,2013-05-08 01:39:00,
2013-05-07 21:44:00,54.0,53.2,29.90,SW,225,0.0,5.0,97,0.00,,,0.01,Weather View 32 v70,2013-05-08 01:44:00,
2013-05-07 21:49:00,54.0,53.2,29.90,SW,225,0.0,5.0,97,0.00,,,0.01,Weather View 32 v70,2013-05-08 01:49:00,
2013-05-07 21:54:00,54.0,53.2,29.90,SW,225,0.0,5.0,97,0.00,,,0.01,Weather View 32 v70,2013-05-08 01:54:00,
2013-05-07 21:59:00,54.0,53.2,29.90,SW,225,0.0,5.0,97,0.00,,,0.01,Weather View 32 v70,2013-05-08 01:59:00,
2013-05-07 22:04:00,54.0,53.2,29.90,SW,225,0.0,5.0,97,0.00,,,0.01,Weather View 32 v70,2013-05-08 02:04:00,
2013-05-07 22:09:00,54.0,53.2,29.91,SW,225,0.0,5.0,97,0.00,,,0.01,Weather View 32 v70,2013-05-08 02:09:00,
2013-05-07 22:14:00,54.0,53.2,29.91,SW,225,0.0,5.0,97,0.00,,,0.01,Weather View 32 v70,2013-05-08 02:14:00,
2013-05-07 22:19:00,54.0,53.2,29.90,SW,225,0.0,5.0,97,0.00,,,0.01,Weather View 32 v70,2013-05-08 02:19:00,
2013-05-07 22:24:00,54.0,53.2,29.90,SW,225,0.0,5.0,97,0.00,,,0.01,Weather View 32 v70,2013-05-08 02:24:00,
2013-05-07 22:29:00,54.0,53.2,29.91,SW,225,0.0,5.0,97,0.00,,,0.01,Weather View 32 v70,2013-05-08 02:29:00,
2013-05-07 22:34:00,54.0,53.2,29.91,SW,225,0.0,5.0,97,0.00,,,0.01,Weather View 32 v70,2013-05-08 02:34:00,
2013-05-07 22:39:00,54.0,53.2,29.91,SW,225,0.0,5.0,97,0.00,,,0.01,Weather View 32 v70,2013-05-08 02:39:00,
2013-05-07 22:44:00,54.0,53.2,29.91,SW,225,0.0,5.0,97,0.00,,,0.01,Weather View 32 v70,2013-05-08 02:44:00,
2013-05-07 22:49:00,54.0,53.2,29.91,SW,225,0.0,4.0,97,0.00,,,0.01,Weather View 32 v70,2013-05-08 02:49:00,
2013-05-07 22:54:00,54.0,53.2,29.91,SW,225,0.0,4.0,97,0.00,,,0.01,Weather View 32 v70,2013-05-08 02:54:00,
2013-05-07 22:59:00,54.0,53.2,29.91,SW,225,1.0,4.0,97,0.00,,,0.01,Weather View 32 v70,2013-05-08 02:59:00,
2013-05-07 23:04:00,54.0,53.2,29.91,SW,225,0.0,4.0,97,0.00,,,0.01,Weather View 32 v70,2013-05-08 03:04:00,
2013-05-07 23:09:00,54.0,53.2,29.91,SW,225,0.0,4.0,97,0.00,,,0.01,Weather View 32 v70,2013-05-08 03:09:00,
2013-05-07 23:14:00,54.0,53.2,29.91,SW,225,0.0,2.0,97,0.00,,,0.01,Weather View 32 v70,2013-05-08 03:14:00,
2013-05-07 23:19:00,54.0,53.2,29.91,SW,225,0.0,2.0,97,0.00,,,0.01,Weather View 32 v70,2013-05-08 03:19:00,
2013-05-07 23:24:00,54.0,53.2,29.91,SW,225,0.0,1.0,97,0.00,,,0.01,Weather View 32 v70,2013-05-08 03:24:00,
2013-05-07 23:29:00,54.0,53.2,29.91,SW,225,0.0,1.0,97,0.00,,,0.01,Weather View 32 v70,2013-05-08 03:29:00,
2013-05-07 23:34:00,54.0,53.2,29.91,SW,225,0.0,1.0,97,0.00,,,0.01,Weather View 32 v70,2013-05-08 03:34:00,
2013-05-07 23:39:00,54.0,53.2,29.91,SW,225,0.0,1.0,97,0.00,,,0.01,Weather View 32 v70,2013-05-08 03:39:00,
2013-05-07 23:44:00,54.0,53.2,29.91,SW,225,0.0,1.0,97,0.00,,,0.01,Weather View 32 v70,2013-05-08 03:44:00,
2013-05-07 23:49:00,54.0,53.2,29.91,SW,225,0.0,1.0,97,0.00,,,0.01,Weather View 32 v70,2013-05-08 03:49:00,
2013-05-07 23:54:00,54.0,53.2,29.91,SW,225,0.0,2.0,97,0.00,,,0.01,Weather View 32 v70,2013-05-08 03:54:00,
2013-05-07 23:59:00,54.0,53.2,29.90,SW,225,1.0,3.0,97,0.00,,,0.01,Weather View 32 v70,2013-05-08 03:59:00,